Location: Unspecified
(0.0000°N, 0.0000°E)
Time: 11:06:57
(UTC+00:00)

Transit 2A - Pass Details

Date: 24 November 2019
Orbit: 602 x 957 km, 66.7° (Epoch: 14 December)

Event Time Altitude Azimuth Distance (km) Brightness Sun altitude
Rises 08:47:40 0° 188° (S) 3,532 9.6 41.7°
Reaches altitude 10° 08:50:23 10° 182° (S) 2,544 9.1 42.3°
Maximum altitude 08:55:58 45° 111° (ESE) 1,123 9.9 43.5°
Drops below altitude 10° 09:01:02 10° 39° (NE) 2,311 8.7 44.6°
Sets 09:03:24 0° 33° (NNE) 3,178 9.2 45.2°
